Overview Statistics Trail Chart Weather Telemetry Raw packets
 

This is the latest recevied weather packets stored in our database for station/object N8BAP. If no packets are shown the sender has not sent any weather packets the latest 10 day(s).

<< 15 16 17 18 19 20 21 >>
Time Temp. Humidity Pressure Rain* Wind** Luminosity Snow
1788517858 23.89° C 88% 1020.7 hPa 0 mm - 0 W/m² -
1788517554 23.33° C 91% 1020.6 hPa 0 mm - 0 W/m² -
1788517249 22.78° C 90% 1020.7 hPa 0 mm - 0 W/m² -
1788516946 23.33° C 88% 1020.7 hPa 0 mm - 0 W/m² -
1788516641 23.89° C 87% 1020.5 hPa 0 mm - 0 W/m² -
1788516337 23.89° C 89% 1020.6 hPa 0 mm - 0 W/m² -
1788516032 23.89° C 89% 1020.9 hPa 0 mm - 0 W/m² -
1788515726 23.33° C 89% 1020.8 hPa 0 mm - 0 W/m² -
1788515422 23.89° C 89% 1020.6 hPa 0 mm - 0 W/m² -
1788515116 23.89° C 89% 1020.6 hPa 0 mm - 0 W/m² -
1788514839 23.33° C 89% 1020.9 hPa 0 mm - 0 W/m² -
1788514509 23.33° C 91% 1020.5 hPa 0 mm - 0 W/m² -
1788514203 22.78° C 92% 1020.7 hPa 0 mm - 0 W/m² -
1788513899 22.78° C 93% 1020.8 hPa 0 mm - 0 W/m² -
1788513595 22.22° C 93% 1020.5 hPa 0 mm - 0 W/m² -
1788513291 22.78° C 92% 1020.7 hPa 0 mm - 0 W/m² -
1788512990 22.78° C 92% 1020.7 hPa 0 mm - 0 W/m² -
1788512686 22.78° C 91% 1020.8 hPa 0 mm - 0 W/m² -
1788512381 22.78° C 91% 1020.8 hPa 0 mm - 0 W/m² -
1788512076 22.78° C 91% 1020.7 hPa 0 mm - 0 W/m² -
1788511771 23.33° C 89% 1020.9 hPa 0 mm - 0 W/m² -
1788511467 23.89° C 88% 1020.6 hPa 0 mm - 0 W/m² -
1788511162 23.89° C 89% 1020.7 hPa 0 mm - 0 W/m² -
1788510859 23.33° C 92% 1020.8 hPa 0 mm - 0 W/m² -
1788510549 22.78° C 94% 1020.9 hPa 0 mm - 0 W/m² -

* Rain latest hour (hover to see other rain measurements)
** Current wind speed in m/s (hover to see current wind gust speed)